BON309R FMEE-FACT

Flight info

Callsign BON309R
Flight time 5h 21m
Altitude 34000
Route GETIR2J GETIR UA402 XURIK/N0467F360 UA402 TGV DCT TUBIN UZ3 ESRUK UQ51 GETEN GETEN1C
Aircraft B38M/M-SDE1FGHILORVWXY/HB1

Departure

Time 2026-05-05 08:25
Airport Roland Garros Airport (FMEE)

Arrival

Time 2026-05-05 13:46
Airport Cape Town International Airport (FACT)
Time Latitude Longitude Altitude Speed Heading
2026-05-05 08:07 -20.89050 55.51168 68 ft 0 kts 206°
2026-05-05 08:17 -20.89040 55.51173 77 ft 4 kts 206°
2026-05-05 08:18 -20.89016 55.51186 71 ft 3 kts 206°
2026-05-05 08:18 -20.88995 55.51195 76 ft 4 kts 188°
2026-05-05 08:18 -20.88972 55.51192 77 ft 4 kts 141°
2026-05-05 08:18 -20.88957 55.51169 68 ft 4 kts 116°
2026-05-05 08:19 -20.88946 55.51145 71 ft 4 kts 116°
2026-05-05 08:19 -20.88934 55.51119 69 ft 3 kts 116°
2026-05-05 08:19 -20.88932 55.51115 70 ft 0 kts 116°
2026-05-05 08:21 -20.88941 55.51141 72 ft 7 kts 99°
2026-05-05 08:22 -20.88894 55.51168 67 ft 12 kts 342°
2026-05-05 08:22 -20.88785 55.51126 61 ft 15 kts 323°
2026-05-05 08:22 -20.88715 55.51029 61 ft 18 kts 291°
2026-05-05 08:22 -20.88684 55.50885 59 ft 22 kts 282°
2026-05-05 08:23 -20.88652 55.50727 57 ft 19 kts 283°
2026-05-05 08:23 -20.88625 55.50598 53 ft 17 kts 282°
2026-05-05 08:23 -20.88579 55.50491 54 ft 12 kts 248°
2026-05-05 08:23 -20.88610 55.50515 53 ft 7 kts 99°
2026-05-05 08:24 -20.88621 55.50577 52 ft 16 kts 101°
2026-05-05 08:24 -20.88698 55.50957 61 ft 86 kts 102°
2026-05-05 08:24 -20.88868 55.51793 53 ft 143 kts 103°
2026-05-05 08:24 -20.89081 55.52901 477 ft 154 kts 98°
2026-05-05 08:25 -20.89300 55.54094 1024 ft 166 kts 103°
2026-05-05 08:25 -20.89544 55.55289 1809 ft 170 kts 104°
2026-05-05 08:25 -20.89817 55.56608 2256 ft 193 kts 103°
2026-05-05 08:25 -20.90124 55.58095 2701 ft 219 kts 103°
2026-05-05 08:26 -20.90466 55.59760 3280 ft 237 kts 103°
2026-05-05 08:26 -20.90828 55.61527 4028 ft 249 kts 103°
2026-05-05 08:26 -20.91199 55.63349 4963 ft 252 kts 103°
2026-05-05 08:26 -20.91577 55.65206 5808 ft 260 kts 103°
2026-05-05 08:27 -20.91967 55.67115 6702 ft 262 kts 103°
2026-05-05 08:27 -20.92352 55.69005 7519 ft 266 kts 103°
2026-05-05 08:27 -20.92745 55.70943 8382 ft 269 kts 103°
2026-05-05 08:27 -20.93164 55.72926 9113 ft 276 kts 107°
2026-05-05 08:28 -20.94094 55.74727 9870 ft 282 kts 132°
2026-05-05 08:28 -20.95678 55.76025 10413 ft 296 kts 148°
2026-05-05 08:28 -20.97523 55.77164 10727 ft 316 kts 147°
2026-05-05 08:28 -20.99477 55.78364 11092 ft 331 kts 149°
2026-05-05 08:29 -21.01510 55.79600 11664 ft 337 kts 148°
2026-05-05 08:29 -21.03548 55.80832 12429 ft 338 kts 149°
2026-05-05 08:29 -21.05609 55.82077 13053 ft 342 kts 149°
2026-05-05 08:30 -21.09782 55.84598 14291 ft 347 kts 149°
2026-05-05 08:30 -21.11892 55.85872 14838 ft 350 kts 149°
2026-05-05 08:30 -21.14027 55.87162 15347 ft 354 kts 149°
2026-05-05 08:30 -21.16177 55.88462 15871 ft 357 kts 149°
2026-05-05 08:31 -21.18347 55.89775 16396 ft 360 kts 150°
2026-05-05 08:31 -21.20535 55.91098 16900 ft 363 kts 150°
2026-05-05 08:31 -21.22805 55.92321 17344 ft 367 kts 161°
2026-05-05 08:31 -21.25311 55.92810 17915 ft 368 kts 179°
2026-05-05 08:32 -21.27859 55.92460 18366 ft 373 kts 196°
2026-05-05 08:32 -21.30214 55.91298 18803 ft 376 kts 213°
2026-05-05 08:32 -21.32183 55.89433 19162 ft 381 kts 230°
2026-05-05 08:32 -21.33738 55.87135 19639 ft 382 kts 233°
2026-05-05 08:33 -21.35257 55.84774 19998 ft 386 kts 234°
2026-05-05 08:33 -21.36756 55.82374 20439 ft 388 kts 236°
2026-05-05 08:33 -21.38245 55.79955 20884 ft 389 kts 236°
2026-05-05 08:33 -21.39732 55.77514 21281 ft 392 kts 236°
2026-05-05 08:34 -21.41224 55.75051 21703 ft 394 kts 235°
2026-05-05 08:34 -21.42715 55.72585 22166 ft 395 kts 236°
2026-05-05 08:34 -21.44214 55.70101 22566 ft 399 kts 236°
2026-05-05 08:34 -21.45726 55.67593 22972 ft 400 kts 236°
2026-05-05 08:35 -21.46939 55.64909 23429 ft 403 kts 251°
2026-05-05 08:35 -21.47389 55.61934 23728 ft 408 kts 269°
2026-05-05 08:35 -21.47070 55.58896 24074 ft 411 kts 278°
2026-05-05 08:35 -21.46562 55.55869 24398 ft 414 kts 279°
2026-05-05 08:36 -21.46021 55.52828 24737 ft 415 kts 279°
2026-05-05 08:36 -21.45469 55.49820 25092 ft 417 kts 279°
2026-05-05 08:36 -21.44894 55.46759 25384 ft 420 kts 280°
2026-05-05 08:36 -21.44310 55.43684 25724 ft 421 kts 279°
2026-05-05 08:37 -21.43804 55.40584 26055 ft 422 kts 272°
2026-05-05 08:37 -21.43995 55.37456 26368 ft 421 kts 256°
2026-05-05 08:37 -21.44993 55.34522 26679 ft 420 kts 240°
2026-05-05 08:37 -21.46503 55.31827 26960 ft 422 kts 237°
2026-05-05 08:38 -21.48084 55.29155 27228 ft 425 kts 237°
2026-05-05 08:38 -21.49702 55.26498 27555 ft 426 kts 236°
2026-05-05 08:38 -21.51343 55.23839 27898 ft 427 kts 236°
2026-05-05 08:38 -21.52996 55.21183 28216 ft 428 kts 236°
2026-05-05 08:39 -21.54654 55.18530 28541 ft 429 kts 236°
2026-05-05 08:39 -21.56325 55.15859 28751 ft 433 kts 236°
2026-05-05 08:39 -21.58004 55.13174 29091 ft 433 kts 236°
2026-05-05 08:39 -21.59685 55.10485 29367 ft 435 kts 236°
2026-05-05 08:40 -21.61380 55.07771 29613 ft 437 kts 236°
2026-05-05 08:40 -21.63076 55.05056 29942 ft 438 kts 236°
2026-05-05 08:40 -21.64203 55.03251 30080 ft 440 kts 236°
2026-05-05 08:40 -21.66491 54.99584 30400 ft 442 kts 236°
2026-05-05 08:41 -21.67623 54.97769 30567 ft 442 kts 236°
2026-05-05 08:41 -21.69339 54.95016 30802 ft 443 kts 236°
2026-05-05 08:41 -21.71055 54.92261 31033 ft 444 kts 236°
2026-05-05 08:41 -21.72777 54.89496 31248 ft 446 kts 236°
2026-05-05 08:42 -21.74532 54.86677 31411 ft 448 kts 236°
2026-05-05 08:42 -21.76241 54.83930 31687 ft 448 kts 236°
2026-05-05 08:42 -21.77995 54.81109 31981 ft 447 kts 237°
2026-05-05 08:42 -21.79724 54.78326 32291 ft 446 kts 237°
2026-05-05 08:43 -21.81445 54.75556 32607 ft 445 kts 237°
2026-05-05 08:43 -21.83161 54.72792 32936 ft 443 kts 237°
2026-05-05 08:43 -21.84866 54.70044 33282 ft 440 kts 237°
2026-05-05 08:43 -21.86540 54.67345 33607 ft 439 kts 237°
2026-05-05 08:44 -21.88253 54.64582 33942 ft 437 kts 237°
2026-05-05 08:44 -21.89914 54.61901 34088 ft 436 kts 237°
2026-05-05 08:44 -21.91594 54.59190 34079 ft 435 kts 237°
2026-05-05 08:45 -21.94958 54.53753 34089 ft 438 kts 237°
2026-05-05 08:45 -21.98329 54.48300 34080 ft 437 kts 237°
2026-05-05 08:46 -22.01682 54.42872 34081 ft 434 kts 237°
2026-05-05 08:46 -22.05025 54.37452 34079 ft 434 kts 237°
2026-05-05 08:47 -22.08366 54.32033 34081 ft 434 kts 237°
2026-05-05 08:47 -22.11711 54.26599 34084 ft 437 kts 237°
2026-05-05 08:48 -22.15077 54.21127 34081 ft 437 kts 237°
2026-05-05 08:48 -22.18426 54.15677 34083 ft 436 kts 237°
2026-05-05 08:49 -22.21773 54.10224 34087 ft 436 kts 237°
2026-05-05 08:49 -22.25121 54.04764 34085 ft 436 kts 237°
2026-05-05 08:50 -22.28467 53.99303 34076 ft 436 kts 237°
2026-05-05 08:50 -22.31791 53.93872 34087 ft 437 kts 237°
2026-05-05 08:51 -22.35141 53.88392 34088 ft 437 kts 237°
2026-05-05 08:51 -22.38490 53.82907 34087 ft 437 kts 237°
2026-05-05 08:52 -22.41836 53.77425 34086 ft 437 kts 237°
2026-05-05 08:52 -22.45181 53.71940 34082 ft 437 kts 237°
2026-05-05 08:53 -22.47897 53.66146 34070 ft 434 kts 258°
2026-05-05 08:53 -22.48175 53.62896 34083 ft 437 kts 272°
2026-05-05 08:53 -22.47663 53.59655 34086 ft 441 kts 285°
2026-05-05 08:54 -22.45611 53.53382 34085 ft 443 kts 289°
2026-05-05 08:54 -22.43393 53.47156 34087 ft 444 kts 289°
2026-05-05 08:55 -22.41190 53.40934 34069 ft 442 kts 283°
2026-05-05 08:55 -22.40763 53.37675 34077 ft 437 kts 268°
2026-05-05 08:55 -22.41151 53.34433 34089 ft 436 kts 253°
2026-05-05 08:56 -22.43408 53.28330 34091 ft 439 kts 246°
2026-05-05 08:56 -22.45943 53.22340 34087 ft 437 kts 245°
2026-05-05 08:57 -22.48532 53.16398 34081 ft 437 kts 245°
2026-05-05 08:57 -22.51133 53.10463 34086 ft 437 kts 245°
2026-05-05 08:58 -22.53735 53.04524 34095 ft 437 kts 245°
2026-05-05 08:58 -22.56336 52.98582 34094 ft 438 kts 245°
2026-05-05 08:59 -22.58927 52.92653 34090 ft 439 kts 245°
2026-05-05 08:59 -22.61534 52.86682 34087 ft 439 kts 245°
2026-05-05 09:00 -22.64140 52.80706 34088 ft 439 kts 245°
2026-05-05 09:00 -22.66741 52.74733 34086 ft 438 kts 245°
2026-05-05 09:01 -22.69336 52.68767 34089 ft 437 kts 245°
2026-05-05 09:01 -22.71926 52.62804 34088 ft 438 kts 245°
2026-05-05 09:02 -22.74517 52.56834 34085 ft 438 kts 245°
2026-05-05 09:02 -22.77105 52.50863 34090 ft 438 kts 245°
2026-05-05 09:03 -22.79684 52.44903 34088 ft 437 kts 245°
2026-05-05 09:03 -22.82261 52.38942 34090 ft 437 kts 245°
2026-05-05 09:04 -22.84835 52.32980 34090 ft 437 kts 245°
2026-05-05 09:04 -22.87408 52.27014 34091 ft 437 kts 245°
2026-05-05 09:05 -22.89983 52.21035 34358 ft 438 kts 245°
2026-05-05 09:05 -22.91271 52.18042 34555 ft 438 kts 245°
2026-05-05 09:05 -22.92558 52.15049 34754 ft 438 kts 245°
2026-05-05 09:05 -22.93844 52.12055 34957 ft 438 kts 245°
2026-05-05 09:06 -22.95129 52.09063 35139 ft 438 kts 245°
2026-05-05 09:06 -22.96413 52.06072 35328 ft 437 kts 245°
2026-05-05 09:06 -22.97695 52.03082 35523 ft 437 kts 245°
2026-05-05 09:06 -22.98976 52.00093 35734 ft 436 kts 245°
2026-05-05 09:07 -23.00252 51.97115 35967 ft 434 kts 245°
2026-05-05 09:07 -23.01522 51.94149 36096 ft 434 kts 245°
2026-05-05 09:07 -23.02778 51.91214 36095 ft 434 kts 244°
2026-05-05 09:08 -23.05313 51.85282 36091 ft 433 kts 244°
2026-05-05 09:08 -23.07867 51.79302 36088 ft 433 kts 244°
2026-05-05 09:09 -23.10378 51.73410 36090 ft 433 kts 244°
2026-05-05 09:09 -23.12907 51.67472 36091 ft 433 kts 244°
2026-05-05 09:10 -23.15430 51.61541 36092 ft 433 kts 244°
2026-05-05 09:10 -23.17952 51.55604 36096 ft 432 kts 244°
2026-05-05 09:11 -23.20471 51.49667 36092 ft 433 kts 244°
2026-05-05 09:11 -23.22987 51.43728 36091 ft 433 kts 244°
2026-05-05 09:12 -23.25504 51.37782 36088 ft 433 kts 244°
2026-05-05 09:12 -23.28016 51.31837 36083 ft 433 kts 244°
2026-05-05 09:13 -23.30526 51.25890 36089 ft 432 kts 244°
2026-05-05 09:13 -23.33034 51.19941 36094 ft 432 kts 244°
2026-05-05 09:14 -23.35540 51.13990 36092 ft 433 kts 244°
2026-05-05 09:14 -23.38043 51.08037 36092 ft 433 kts 244°
2026-05-05 09:15 -23.40547 51.02074 36089 ft 433 kts 244°
2026-05-05 09:15 -23.43046 50.96116 36091 ft 433 kts 244°
2026-05-05 09:16 -23.45528 50.90191 36090 ft 433 kts 244°
2026-05-05 09:16 -23.48023 50.84229 36091 ft 433 kts 244°
2026-05-05 09:17 -23.50518 50.78257 36087 ft 433 kts 244°
2026-05-05 09:17 -23.53010 50.72284 36086 ft 433 kts 244°
2026-05-05 09:18 -23.55502 50.66304 36086 ft 433 kts 244°
2026-05-05 09:18 -23.57991 50.60324 36087 ft 433 kts 244°
2026-05-05 09:19 -23.60475 50.54349 36087 ft 433 kts 244°
2026-05-05 09:19 -23.62959 50.48365 36088 ft 433 kts 244°
2026-05-05 09:20 -23.65442 50.42374 36089 ft 434 kts 244°
2026-05-05 09:20 -23.67923 50.36383 36088 ft 433 kts 244°
2026-05-05 09:21 -23.70401 50.30392 36089 ft 433 kts 244°
2026-05-05 09:21 -23.72877 50.24398 36089 ft 433 kts 244°
2026-05-05 09:22 -23.75349 50.18407 36080 ft 433 kts 244°
2026-05-05 09:22 -23.77820 50.12409 36088 ft 433 kts 244°
2026-05-05 09:23 -23.80290 50.06409 36092 ft 433 kts 244°
2026-05-05 09:23 -23.82755 50.00407 36089 ft 433 kts 244°
2026-05-05 09:24 -23.85216 49.94396 36084 ft 433 kts 244°
2026-05-05 09:24 -23.87673 49.88395 36086 ft 433 kts 244°
2026-05-05 09:25 -23.90129 49.82388 36088 ft 433 kts 244°
2026-05-05 09:25 -23.92582 49.76383 36086 ft 433 kts 244°
2026-05-05 09:26 -23.95018 49.70414 36085 ft 433 kts 244°
2026-05-05 09:26 -23.97463 49.64410 36086 ft 432 kts 244°
2026-05-05 09:27 -23.99908 49.58402 36085 ft 432 kts 244°
2026-05-05 09:27 -24.02352 49.52386 36076 ft 432 kts 244°
2026-05-05 09:28 -24.04791 49.46375 36086 ft 432 kts 244°
2026-05-05 09:28 -24.07229 49.40359 36084 ft 432 kts 244°
2026-05-05 09:29 -24.09664 49.34342 36082 ft 432 kts 244°
2026-05-05 09:29 -24.12096 49.28322 36075 ft 432 kts 244°
2026-05-05 09:30 -24.14117 49.23316 36082 ft 432 kts 244°
2026-05-05 09:30 -24.16543 49.17297 36080 ft 432 kts 244°
2026-05-05 09:31 -24.18966 49.11278 36077 ft 432 kts 244°
2026-05-05 09:31 -24.21388 49.05254 36074 ft 432 kts 244°
2026-05-05 09:32 -24.23808 48.99226 36077 ft 432 kts 244°
2026-05-05 09:32 -24.26224 48.93200 36076 ft 432 kts 244°
2026-05-05 09:33 -24.28639 48.87168 36075 ft 432 kts 244°
2026-05-05 09:33 -24.31051 48.81136 36078 ft 432 kts 244°
2026-05-05 09:34 -24.33461 48.75101 36074 ft 432 kts 244°
2026-05-05 09:34 -24.35868 48.69065 36072 ft 432 kts 244°
2026-05-05 09:35 -24.38255 48.63069 36064 ft 432 kts 244°
2026-05-05 09:35 -24.41857 48.54010 36068 ft 432 kts 244°
2026-05-05 09:36 -24.44252 48.47974 36072 ft 431 kts 244°
2026-05-05 09:36 -24.46645 48.41937 36060 ft 431 kts 244°
2026-05-05 09:37 -24.49032 48.35904 36065 ft 431 kts 244°
2026-05-05 09:37 -24.51420 48.29862 36064 ft 431 kts 244°
2026-05-05 09:38 -24.53803 48.23824 36061 ft 431 kts 244°
2026-05-05 09:38 -24.56183 48.17783 36060 ft 431 kts 244°
2026-05-05 09:39 -24.58558 48.11749 36056 ft 430 kts 245°
2026-05-05 09:39 -24.60929 48.05716 36057 ft 430 kts 245°
2026-05-05 09:40 -24.63298 47.99680 36053 ft 430 kts 245°
2026-05-05 09:40 -24.65647 47.93685 36053 ft 430 kts 245°
2026-05-05 09:41 -24.68011 47.87645 36050 ft 430 kts 245°
2026-05-05 09:41 -24.70369 47.81611 36053 ft 429 kts 245°
2026-05-05 09:42 -24.72718 47.75592 36046 ft 428 kts 245°
2026-05-05 09:42 -24.75064 47.69572 36045 ft 428 kts 245°
2026-05-05 09:43 -24.77408 47.63551 36046 ft 428 kts 245°
2026-05-05 09:43 -24.79747 47.57533 36035 ft 428 kts 245°
2026-05-05 09:44 -24.82083 47.51515 36041 ft 427 kts 245°
2026-05-05 09:44 -24.84412 47.45508 36034 ft 427 kts 245°
2026-05-05 09:45 -24.86742 47.39492 36035 ft 427 kts 245°
2026-05-05 09:45 -24.89067 47.33479 36030 ft 427 kts 245°
2026-05-05 09:46 -24.91399 47.27463 36021 ft 427 kts 245°
2026-05-05 09:46 -24.93730 47.21445 36019 ft 427 kts 245°
2026-05-05 09:47 -24.96052 47.15444 35997 ft 425 kts 245°
2026-05-05 09:47 -24.98371 47.09441 35998 ft 426 kts 245°
2026-05-05 09:48 -25.00688 47.03437 35993 ft 426 kts 245°
2026-05-05 09:48 -25.02987 46.97471 35998 ft 426 kts 245°
2026-05-05 09:49 -25.04969 46.91316 36017 ft 427 kts 249°
2026-05-05 09:49 -25.06873 46.85119 36006 ft 425 kts 249°
2026-05-05 09:50 -25.08785 46.78945 36009 ft 426 kts 249°
2026-05-05 09:50 -25.10701 46.72756 35997 ft 426 kts 249°
2026-05-05 09:51 -25.12611 46.66572 35996 ft 426 kts 249°
2026-05-05 09:51 -25.14522 46.60380 35995 ft 426 kts 249°
2026-05-05 09:52 -25.16427 46.54194 35999 ft 425 kts 249°
2026-05-05 09:52 -25.18325 46.48025 35990 ft 424 kts 249°
2026-05-05 09:53 -25.20220 46.41852 35994 ft 425 kts 249°
2026-05-05 09:53 -25.22111 46.35679 35984 ft 424 kts 249°
2026-05-05 09:54 -25.24003 46.29498 35991 ft 425 kts 249°
2026-05-05 09:54 -25.25891 46.23315 35999 ft 425 kts 249°
2026-05-05 09:55 -25.27773 46.17146 35985 ft 423 kts 249°
2026-05-05 09:55 -25.29649 46.10984 35988 ft 423 kts 250°
2026-05-05 09:56 -25.31522 46.04820 35988 ft 423 kts 250°
2026-05-05 09:56 -25.33392 45.98657 35985 ft 423 kts 250°
2026-05-05 09:57 -25.35259 45.92493 35983 ft 423 kts 250°
2026-05-05 09:57 -25.37124 45.86326 35985 ft 423 kts 250°
2026-05-05 09:58 -25.38987 45.80156 35982 ft 423 kts 250°
2026-05-05 09:58 -25.40835 45.74025 35976 ft 423 kts 250°
2026-05-05 09:59 -25.42705 45.67807 35976 ft 423 kts 250°
2026-05-05 09:59 -25.44547 45.61674 35973 ft 423 kts 250°
2026-05-05 10:00 -25.46400 45.55493 35976 ft 422 kts 250°
2026-05-05 10:00 -25.48244 45.49334 35972 ft 421 kts 250°
2026-05-05 10:01 -25.50084 45.43176 35970 ft 422 kts 250°
2026-05-05 10:01 -25.51924 45.37010 35962 ft 422 kts 250°
2026-05-05 10:02 -25.53762 45.30838 35967 ft 422 kts 250°
2026-05-05 10:02 -25.55598 45.24662 35974 ft 422 kts 250°
2026-05-05 10:03 -25.57428 45.18496 35951 ft 420 kts 251°
2026-05-05 10:03 -25.59251 45.12344 35970 ft 421 kts 251°
2026-05-05 10:04 -25.61073 45.06184 35965 ft 421 kts 251°
2026-05-05 10:04 -25.62893 45.00020 35967 ft 421 kts 251°
2026-05-05 10:05 -25.64708 44.93862 35962 ft 420 kts 251°
2026-05-05 10:05 -25.66521 44.87700 35964 ft 420 kts 251°
2026-05-05 10:06 -25.68331 44.81540 35965 ft 420 kts 251°
2026-05-05 10:06 -25.70138 44.75378 35966 ft 420 kts 251°
2026-05-05 10:07 -25.71941 44.69216 35969 ft 420 kts 251°
2026-05-05 10:07 -25.73744 44.63047 35969 ft 420 kts 251°
2026-05-05 10:08 -25.75543 44.56879 35968 ft 420 kts 251°
2026-05-05 10:08 -25.77339 44.50712 35969 ft 420 kts 251°
2026-05-05 10:09 -25.79120 44.44583 35971 ft 420 kts 251°
2026-05-05 10:09 -25.80911 44.38412 35972 ft 420 kts 251°
2026-05-05 10:10 -25.82696 44.32250 35975 ft 419 kts 251°
2026-05-05 10:10 -25.84478 44.26088 35974 ft 419 kts 251°
2026-05-05 10:11 -25.86258 44.19922 35974 ft 419 kts 252°
2026-05-05 10:11 -25.88033 44.13759 35971 ft 419 kts 252°
2026-05-05 10:12 -25.89805 44.07600 35972 ft 419 kts 252°
2026-05-05 10:12 -25.91576 44.01432 35974 ft 419 kts 252°
2026-05-05 10:13 -25.93342 43.95272 35971 ft 418 kts 252°
2026-05-05 10:13 -25.95104 43.89111 35969 ft 418 kts 252°
2026-05-05 10:14 -25.96863 43.82953 35967 ft 418 kts 252°
2026-05-05 10:14 -25.98621 43.76792 35968 ft 418 kts 252°
2026-05-05 10:15 -26.00361 43.70680 35972 ft 418 kts 252°
2026-05-05 10:15 -26.02113 43.64519 35972 ft 418 kts 252°
2026-05-05 10:16 -26.03861 43.58357 35967 ft 417 kts 252°
2026-05-05 10:16 -26.05604 43.52204 35966 ft 417 kts 252°
2026-05-05 10:17 -26.07338 43.46045 35969 ft 417 kts 252°
2026-05-05 10:17 -26.09072 43.39888 35972 ft 417 kts 252°
2026-05-05 10:18 -26.10800 43.33741 35966 ft 416 kts 252°
2026-05-05 10:18 -26.12529 43.27585 35966 ft 417 kts 252°
2026-05-05 10:19 -26.14253 43.21433 35973 ft 416 kts 253°
2026-05-05 10:19 -26.15973 43.15284 35968 ft 416 kts 253°
2026-05-05 10:20 -26.17689 43.09140 35969 ft 416 kts 253°
2026-05-05 10:20 -26.19403 43.02991 35969 ft 416 kts 253°
2026-05-05 10:21 -26.20825 42.97878 35967 ft 416 kts 253°
2026-05-05 10:21 -26.22534 42.91727 35968 ft 416 kts 253°
2026-05-05 10:22 -26.24241 42.85571 35968 ft 416 kts 253°
2026-05-05 10:22 -26.25944 42.79418 35969 ft 416 kts 253°
2026-05-05 10:23 -26.27646 42.73259 35969 ft 416 kts 253°
2026-05-05 10:23 -26.29344 42.67101 35969 ft 416 kts 253°
2026-05-05 10:24 -26.31040 42.60939 35970 ft 416 kts 253°
2026-05-05 10:24 -26.32732 42.54783 35968 ft 415 kts 253°
2026-05-05 10:25 -26.34419 42.48629 35969 ft 415 kts 253°
2026-05-05 10:25 -26.36104 42.42476 35968 ft 415 kts 253°
2026-05-05 10:26 -26.37786 42.36319 35973 ft 414 kts 253°
2026-05-05 10:26 -26.39463 42.30173 35972 ft 414 kts 254°
2026-05-05 10:27 -26.41136 42.24027 35970 ft 414 kts 253°
2026-05-05 10:27 -26.42807 42.17875 35979 ft 414 kts 253°
2026-05-05 10:28 -26.44473 42.11734 35971 ft 413 kts 254°
2026-05-05 10:28 -26.46123 42.05638 35972 ft 413 kts 254°
2026-05-05 10:29 -26.47783 41.99494 35973 ft 413 kts 254°
2026-05-05 10:29 -26.49438 41.93358 35974 ft 413 kts 254°
2026-05-05 10:30 -26.51090 41.87223 35974 ft 413 kts 254°
2026-05-05 10:30 -26.52738 41.81087 35977 ft 412 kts 254°
2026-05-05 10:31 -26.54384 41.74949 35978 ft 412 kts 254°
2026-05-05 10:31 -26.56026 41.68814 35977 ft 412 kts 254°
2026-05-05 10:32 -26.57666 41.62676 35975 ft 412 kts 254°
2026-05-05 10:32 -26.59303 41.56540 35975 ft 412 kts 254°
2026-05-05 10:33 -26.60937 41.50399 35977 ft 412 kts 255°
2026-05-05 10:33 -26.62566 41.44269 35977 ft 412 kts 255°
2026-05-05 10:34 -26.64193 41.38131 35977 ft 412 kts 255°
2026-05-05 10:34 -26.65818 41.31992 35981 ft 412 kts 255°
2026-05-05 10:35 -26.67438 41.25858 35980 ft 412 kts 255°
2026-05-05 10:35 -26.69057 41.19720 35979 ft 412 kts 255°
2026-05-05 10:36 -26.70673 41.13577 35979 ft 412 kts 255°
2026-05-05 10:36 -26.72285 41.07439 35980 ft 411 kts 255°
2026-05-05 10:37 -26.73894 41.01301 35979 ft 411 kts 255°
2026-05-05 10:37 -26.75500 40.95162 35977 ft 411 kts 255°
2026-05-05 10:38 -26.77103 40.89023 35990 ft 412 kts 256°
2026-05-05 10:38 -26.78707 40.82868 35982 ft 412 kts 256°
2026-05-05 10:39 -26.80298 40.76750 35977 ft 412 kts 256°
2026-05-05 10:39 -26.81899 40.70586 35979 ft 412 kts 256°
2026-05-05 10:40 -26.83496 40.64421 35974 ft 413 kts 256°
2026-05-05 10:40 -26.85094 40.58241 35975 ft 413 kts 256°
2026-05-05 10:41 -26.86690 40.52056 35979 ft 413 kts 256°
2026-05-05 10:41 -26.88283 40.45873 35984 ft 413 kts 256°
2026-05-05 10:42 -26.90665 40.36603 35980 ft 413 kts 256°
2026-05-05 10:43 -26.92250 40.30423 35977 ft 413 kts 256°
2026-05-05 10:43 -26.93832 40.24239 35980 ft 413 kts 256°
2026-05-05 10:44 -26.95412 40.18056 35978 ft 413 kts 256°
2026-05-05 10:44 -26.96979 40.11912 35977 ft 413 kts 256°
2026-05-05 10:45 -26.98553 40.05727 35977 ft 413 kts 256°
2026-05-05 10:45 -27.00212 39.99564 35969 ft 414 kts 250°
2026-05-05 10:46 -27.02431 39.93600 35967 ft 415 kts 251°
2026-05-05 10:46 -27.04577 39.87598 35975 ft 415 kts 251°
2026-05-05 10:47 -27.06713 39.81585 35976 ft 415 kts 251°
2026-05-05 10:47 -27.08844 39.75575 35975 ft 414 kts 252°
2026-05-05 10:48 -27.10972 39.69566 35975 ft 414 kts 252°
2026-05-05 10:48 -27.13096 39.63555 35971 ft 414 kts 252°
2026-05-05 10:49 -27.15219 39.57539 35979 ft 414 kts 252°
2026-05-05 10:49 -27.17339 39.51524 35971 ft 414 kts 252°
2026-05-05 10:50 -27.19454 39.45511 35971 ft 414 kts 252°
2026-05-05 10:50 -27.21566 39.39498 35970 ft 414 kts 252°
2026-05-05 10:51 -27.23677 39.33478 35975 ft 414 kts 252°
2026-05-05 10:51 -27.25784 39.27461 35967 ft 414 kts 252°
2026-05-05 10:52 -27.27886 39.21445 35968 ft 414 kts 252°
2026-05-05 10:52 -27.29988 39.15424 35963 ft 414 kts 252°
2026-05-05 10:53 -27.32085 39.09404 35974 ft 413 kts 252°
2026-05-05 10:53 -27.34180 39.03383 35970 ft 413 kts 252°
2026-05-05 10:54 -27.36271 38.97361 35969 ft 413 kts 252°
2026-05-05 10:54 -27.38359 38.91340 35965 ft 413 kts 252°
2026-05-05 10:55 -27.40444 38.85317 35965 ft 413 kts 253°
2026-05-05 10:55 -27.42524 38.79299 35964 ft 412 kts 253°
2026-05-05 10:56 -27.44601 38.73280 35964 ft 412 kts 253°
2026-05-05 10:56 -27.46676 38.67259 35965 ft 412 kts 253°
2026-05-05 10:57 -27.48746 38.61239 35966 ft 411 kts 253°
2026-05-05 10:57 -27.50808 38.55235 35964 ft 411 kts 253°
2026-05-05 10:58 -27.52867 38.49227 35960 ft 411 kts 253°
2026-05-05 10:58 -27.54913 38.43252 35959 ft 411 kts 253°
2026-05-05 10:59 -27.56968 38.37238 35959 ft 411 kts 253°
2026-05-05 10:59 -27.59021 38.31221 35958 ft 411 kts 253°
2026-05-05 11:00 -27.61072 38.25199 35958 ft 411 kts 253°
2026-05-05 11:00 -27.63118 38.19182 35961 ft 411 kts 253°
2026-05-05 11:01 -27.65159 38.13171 35953 ft 410 kts 253°
2026-05-05 11:01 -27.67193 38.07168 35954 ft 410 kts 253°
2026-05-05 11:02 -27.69225 38.01162 35953 ft 410 kts 253°
2026-05-05 11:02 -27.71254 37.95157 35961 ft 410 kts 254°
2026-05-05 11:03 -27.73277 37.89160 35939 ft 408 kts 254°
2026-05-05 11:03 -27.75291 37.83176 35941 ft 408 kts 254°
2026-05-05 11:04 -27.77305 37.77186 35942 ft 408 kts 254°
2026-05-05 11:04 -27.79315 37.71197 35950 ft 408 kts 254°
2026-05-05 11:05 -27.81321 37.65210 35941 ft 407 kts 254°
2026-05-05 11:05 -27.83320 37.59232 35937 ft 407 kts 254°
2026-05-05 11:06 -27.85318 37.53250 35934 ft 407 kts 254°
2026-05-05 11:06 -27.87312 37.47267 35946 ft 407 kts 255°
2026-05-05 11:07 -27.89301 37.41294 35938 ft 405 kts 255°
2026-05-05 11:07 -27.91271 37.35364 35938 ft 406 kts 255°
2026-05-05 11:08 -27.93264 37.29354 35931 ft 406 kts 255°
2026-05-05 11:08 -27.95243 37.23378 35947 ft 406 kts 255°
2026-05-05 11:09 -27.97202 37.17453 35927 ft 404 kts 255°
2026-05-05 11:09 -27.99167 37.11500 35922 ft 404 kts 255°
2026-05-05 11:10 -28.01131 37.05541 35927 ft 404 kts 255°
2026-05-05 11:10 -28.02772 37.00552 35920 ft 404 kts 255°
2026-05-05 11:11 -28.04729 36.94595 35928 ft 403 kts 255°
2026-05-05 11:11 -28.06677 36.88656 35921 ft 402 kts 255°
2026-05-05 11:12 -28.08622 36.82715 35923 ft 403 kts 255°
2026-05-05 11:12 -28.10565 36.76769 35922 ft 402 kts 255°
2026-05-05 11:13 -28.12503 36.70829 35919 ft 401 kts 256°
2026-05-05 11:13 -28.14420 36.64946 35915 ft 401 kts 256°
2026-05-05 11:14 -28.16347 36.59021 35907 ft 401 kts 256°
2026-05-05 11:14 -28.18270 36.53098 35904 ft 401 kts 256°
2026-05-05 11:15 -28.20190 36.47172 35918 ft 400 kts 256°
2026-05-05 11:15 -28.22102 36.41264 35906 ft 399 kts 256°
2026-05-05 11:16 -28.24011 36.35356 35907 ft 399 kts 256°
2026-05-05 11:16 -28.25917 36.29448 35899 ft 399 kts 256°
2026-05-05 11:17 -28.27820 36.23539 35911 ft 399 kts 257°
2026-05-05 11:17 -28.29719 36.17635 35890 ft 398 kts 257°
2026-05-05 11:18 -28.31615 36.11729 35891 ft 398 kts 257°
2026-05-05 11:18 -28.33497 36.05860 35891 ft 398 kts 257°
2026-05-05 11:19 -28.35388 35.99952 35887 ft 398 kts 257°
2026-05-05 11:19 -28.37285 35.94047 35884 ft 399 kts 256°
2026-05-05 11:20 -28.39261 35.88154 35885 ft 399 kts 256°
2026-05-05 11:20 -28.41231 35.82267 35883 ft 399 kts 256°
2026-05-05 11:21 -28.43200 35.76373 35888 ft 399 kts 256°
2026-05-05 11:21 -28.45166 35.70479 35881 ft 398 kts 256°
2026-05-05 11:22 -28.47125 35.64598 35880 ft 398 kts 256°
2026-05-05 11:22 -28.49081 35.58711 35882 ft 398 kts 256°
2026-05-05 11:23 -28.51035 35.52824 35877 ft 398 kts 257°
2026-05-05 11:23 -28.52986 35.46936 35882 ft 398 kts 257°
2026-05-05 11:24 -28.54933 35.41050 35875 ft 397 kts 257°
2026-05-05 11:24 -28.56876 35.35164 35873 ft 398 kts 257°
2026-05-05 11:25 -28.58818 35.29272 35873 ft 398 kts 257°
2026-05-05 11:25 -28.60744 35.23421 35880 ft 397 kts 257°
2026-05-05 11:26 -28.62680 35.17527 35868 ft 397 kts 257°
2026-05-05 11:26 -28.64612 35.11638 35864 ft 397 kts 257°
2026-05-05 11:27 -28.66541 35.05747 35867 ft 397 kts 257°
2026-05-05 11:27 -28.68468 34.99851 35867 ft 397 kts 257°
2026-05-05 11:28 -28.70390 34.93963 35862 ft 396 kts 258°
2026-05-05 11:28 -28.72306 34.88082 35862 ft 396 kts 258°
2026-05-05 11:29 -28.74220 34.82196 35862 ft 396 kts 258°
2026-05-05 11:29 -28.76130 34.76313 35862 ft 396 kts 258°
2026-05-05 11:30 -28.78038 34.70426 35867 ft 396 kts 258°
2026-05-05 11:30 -28.79940 34.64548 35860 ft 395 kts 258°
2026-05-05 11:31 -28.81842 34.58662 35859 ft 395 kts 258°
2026-05-05 11:31 -28.83740 34.52777 35854 ft 395 kts 258°
2026-05-05 11:32 -28.85636 34.46890 35879 ft 395 kts 258°
2026-05-05 11:32 -28.87526 34.41011 35855 ft 394 kts 258°
2026-05-05 11:33 -28.89413 34.35136 35853 ft 394 kts 258°
2026-05-05 11:33 -28.91296 34.29262 35855 ft 394 kts 258°
2026-05-05 11:34 -28.93178 34.23385 35855 ft 394 kts 258°
2026-05-05 11:34 -28.95055 34.17511 35858 ft 392 kts 259°
2026-05-05 11:35 -28.96919 34.11670 35855 ft 392 kts 259°
2026-05-05 11:35 -28.98781 34.05823 35851 ft 392 kts 259°
2026-05-05 11:36 -29.00641 33.99973 35852 ft 392 kts 259°
2026-05-05 11:36 -29.02484 33.94166 35873 ft 391 kts 259°
2026-05-05 11:37 -29.04336 33.88325 35855 ft 390 kts 259°
2026-05-05 11:37 -29.06182 33.82488 35839 ft 391 kts 259°
2026-05-05 11:38 -29.08025 33.76650 35839 ft 391 kts 259°
2026-05-05 11:38 -29.09868 33.70806 35846 ft 391 kts 259°
2026-05-05 11:39 -29.11708 33.64959 35861 ft 391 kts 260°
2026-05-05 11:39 -29.13546 33.59107 35855 ft 391 kts 260°
2026-05-05 11:40 -29.15385 33.53244 35851 ft 391 kts 260°
2026-05-05 11:40 -29.17220 33.47382 35850 ft 391 kts 260°
2026-05-05 11:41 -29.19053 33.41517 35854 ft 391 kts 260°
2026-05-05 11:41 -29.20882 33.35652 35843 ft 391 kts 260°
2026-05-05 11:42 -29.22709 33.29785 35852 ft 391 kts 260°
2026-05-05 11:42 -29.24534 33.23918 35850 ft 391 kts 260°
2026-05-05 11:43 -29.26355 33.18052 35848 ft 391 kts 260°
2026-05-05 11:43 -29.28268 33.12205 35853 ft 394 kts 258°
2026-05-05 11:44 -29.30339 33.06390 35853 ft 394 kts 258°
2026-05-05 11:44 -29.32392 33.00574 35848 ft 394 kts 258°
2026-05-05 11:45 -29.34443 32.94750 35850 ft 394 kts 258°
2026-05-05 11:45 -29.36490 32.88925 35869 ft 394 kts 258°
2026-05-05 11:46 -29.38530 32.83110 35845 ft 392 kts 258°
2026-05-05 11:46 -29.40562 32.77310 35848 ft 392 kts 258°
2026-05-05 11:47 -29.42578 32.71546 35850 ft 392 kts 258°
2026-05-05 11:47 -29.44607 32.65735 35848 ft 392 kts 258°
2026-05-05 11:48 -29.47639 32.57033 35845 ft 390 kts 259°
2026-05-05 11:48 -29.49646 32.51261 35851 ft 390 kts 259°
2026-05-05 11:49 -29.51653 32.45481 35848 ft 390 kts 259°
2026-05-05 11:49 -29.53655 32.39704 35849 ft 390 kts 259°
2026-05-05 11:50 -29.55657 32.33920 35894 ft 389 kts 259°
2026-05-05 11:50 -29.57648 32.28154 35850 ft 387 kts 259°
2026-05-05 11:51 -29.59635 32.22394 35855 ft 388 kts 259°
2026-05-05 11:51 -29.61620 32.16630 35855 ft 388 kts 259°
2026-05-05 11:52 -29.63602 32.10867 35855 ft 387 kts 260°
2026-05-05 11:52 -29.64257 32.07946 35831 ft 367 kts 275°
2026-05-05 11:52 -29.64292 32.05048 35868 ft 364 kts 277°
2026-05-05 11:53 -29.64238 31.99244 35854 ft 363 kts 279°
2026-05-05 11:53 -29.64085 31.93446 35853 ft 362 kts 279°
2026-05-05 11:54 -29.63897 31.87657 35854 ft 362 kts 279°
2026-05-05 11:54 -29.63699 31.81871 35856 ft 362 kts 279°
2026-05-05 11:55 -29.63499 31.76115 35859 ft 365 kts 279°
2026-05-05 11:55 -29.63292 31.70238 35863 ft 366 kts 279°
2026-05-05 11:56 -29.63085 31.64432 35861 ft 366 kts 279°
2026-05-05 11:56 -29.62873 31.58587 35862 ft 366 kts 279°
2026-05-05 11:57 -29.62659 31.52740 35862 ft 366 kts 279°
2026-05-05 11:57 -29.62442 31.46865 35851 ft 370 kts 279°
2026-05-05 11:58 -29.62222 31.40998 35874 ft 366 kts 279°
2026-05-05 11:58 -29.62001 31.35159 35878 ft 366 kts 279°
2026-05-05 11:59 -29.61777 31.29322 35882 ft 366 kts 279°
2026-05-05 11:59 -29.61551 31.23481 35908 ft 366 kts 279°
2026-05-05 12:00 -29.61360 31.18587 35886 ft 371 kts 279°
2026-05-05 12:00 -29.61600 31.12623 35870 ft 388 kts 262°
2026-05-05 12:01 -29.62712 31.09724 35895 ft 405 kts 252°
2026-05-05 12:01 -29.64095 31.06893 35859 ft 408 kts 252°
2026-05-05 12:01 -29.66935 31.01232 35894 ft 409 kts 251°
2026-05-05 12:02 -29.69820 30.95598 35906 ft 409 kts 251°
2026-05-05 12:02 -29.72721 30.89952 35891 ft 411 kts 251°
2026-05-05 12:03 -29.75635 30.84276 35910 ft 413 kts 251°
2026-05-05 12:03 -29.78549 30.78593 35906 ft 411 kts 251°
2026-05-05 12:04 -29.81447 30.72932 35886 ft 410 kts 251°
2026-05-05 12:04 -29.84345 30.67263 35911 ft 411 kts 252°
2026-05-05 12:05 -29.87244 30.61585 35906 ft 411 kts 252°
2026-05-05 12:05 -29.90142 30.55901 35889 ft 411 kts 252°
2026-05-05 12:06 -29.93041 30.50206 35901 ft 412 kts 252°
2026-05-05 12:06 -29.95935 30.44514 35898 ft 411 kts 252°
2026-05-05 12:07 -29.98827 30.38816 35914 ft 413 kts 252°
2026-05-05 12:07 -30.01740 30.33073 35911 ft 416 kts 252°
2026-05-05 12:08 -30.04662 30.27296 35893 ft 417 kts 252°
2026-05-05 12:08 -30.07574 30.21530 35894 ft 415 kts 252°
2026-05-05 12:09 -30.10474 30.15781 35911 ft 415 kts 252°
2026-05-05 12:09 -30.13354 30.10064 35925 ft 415 kts 252°
2026-05-05 12:10 -30.16282 30.04241 35907 ft 417 kts 252°
2026-05-05 12:10 -30.19172 29.98486 35900 ft 417 kts 252°
2026-05-05 12:11 -30.22080 29.92687 35904 ft 417 kts 252°
2026-05-05 12:11 -30.24985 29.86884 35902 ft 416 kts 252°
2026-05-05 12:12 -30.27876 29.81104 35915 ft 416 kts 253°
2026-05-05 12:12 -30.30266 29.75136 35932 ft 409 kts 257°
2026-05-05 12:13 -30.32644 29.69156 35895 ft 409 kts 257°
2026-05-05 12:13 -30.35043 29.63170 35898 ft 410 kts 257°
2026-05-05 12:14 -30.37439 29.57183 35900 ft 410 kts 257°
2026-05-05 12:14 -30.39832 29.51196 35908 ft 409 kts 257°
2026-05-05 12:15 -30.42220 29.45213 35886 ft 409 kts 257°
2026-05-05 12:15 -30.44606 29.39225 35883 ft 409 kts 257°
2026-05-05 12:16 -30.46988 29.33238 35882 ft 409 kts 257°
2026-05-05 12:16 -30.49371 29.27239 35852 ft 409 kts 257°
2026-05-05 12:17 -30.51752 29.21230 35874 ft 413 kts 257°
2026-05-05 12:17 -30.54148 29.15178 35865 ft 413 kts 257°
2026-05-05 12:18 -30.56542 29.09119 35863 ft 413 kts 257°
2026-05-05 12:18 -30.58933 29.03061 35860 ft 413 kts 257°
2026-05-05 12:19 -30.61320 28.97000 35853 ft 413 kts 257°
2026-05-05 12:19 -30.63707 28.90929 35862 ft 414 kts 258°
2026-05-05 12:20 -30.66092 28.84852 35861 ft 414 kts 258°
2026-05-05 12:20 -30.68477 28.78768 35864 ft 414 kts 258°
2026-05-05 12:21 -30.70842 28.72724 35855 ft 413 kts 258°
2026-05-05 12:21 -30.73221 28.66632 35849 ft 414 kts 258°
2026-05-05 12:22 -30.75600 28.60535 35862 ft 415 kts 258°
2026-05-05 12:22 -30.77977 28.54419 35877 ft 416 kts 258°
2026-05-05 12:23 -30.80366 28.48267 35867 ft 414 kts 258°
2026-05-05 12:23 -30.82719 28.42199 35874 ft 415 kts 258°
2026-05-05 12:24 -30.85087 28.36081 35928 ft 415 kts 258°
2026-05-05 12:24 -30.87458 28.29944 35892 ft 415 kts 258°
2026-05-05 12:25 -30.89822 28.23816 35893 ft 416 kts 258°
2026-05-05 12:25 -30.92182 28.17671 35880 ft 415 kts 258°
2026-05-05 12:26 -30.94532 28.11541 35901 ft 415 kts 258°
2026-05-05 12:26 -30.96876 28.05411 35985 ft 415 kts 258°
2026-05-05 12:27 -30.99239 27.99229 35877 ft 418 kts 258°
2026-05-05 12:27 -31.01608 27.93025 35886 ft 420 kts 258°
2026-05-05 12:28 -31.03985 27.86809 35901 ft 420 kts 258°
2026-05-05 12:28 -31.06357 27.80594 35860 ft 418 kts 258°
2026-05-05 12:29 -31.08720 27.74392 35888 ft 419 kts 258°
2026-05-05 12:29 -31.11085 27.68175 35874 ft 419 kts 258°
2026-05-05 12:30 -31.13448 27.61952 35894 ft 420 kts 258°
2026-05-05 12:30 -31.15805 27.55732 35878 ft 419 kts 258°
2026-05-05 12:31 -31.18162 27.49503 35883 ft 420 kts 258°
2026-05-05 12:31 -31.20520 27.43258 35891 ft 421 kts 258°
2026-05-05 12:32 -31.22882 27.36993 35873 ft 422 kts 258°
2026-05-05 12:32 -31.25244 27.30716 35871 ft 421 kts 258°
2026-05-05 12:33 -31.27601 27.24443 35863 ft 422 kts 258°
2026-05-05 12:33 -31.29955 27.18165 35866 ft 422 kts 258°
2026-05-05 12:34 -31.32312 27.11869 35866 ft 424 kts 259°
2026-05-05 12:34 -31.34675 27.05544 35863 ft 425 kts 259°
2026-05-05 12:35 -31.37036 26.99217 35865 ft 424 kts 259°
2026-05-05 12:35 -31.39374 26.92880 35863 ft 424 kts 259°
2026-05-05 12:36 -31.41712 26.86540 35908 ft 424 kts 259°
2026-05-05 12:36 -31.44046 26.80198 35865 ft 424 kts 259°
2026-05-05 12:37 -31.46374 26.73860 35857 ft 423 kts 260°
2026-05-05 12:37 -31.48702 26.67512 35862 ft 425 kts 260°
2026-05-05 12:38 -31.51030 26.61152 35873 ft 425 kts 259°
2026-05-05 12:38 -31.53338 26.54835 35916 ft 424 kts 260°
2026-05-05 12:39 -31.55657 26.48502 35849 ft 421 kts 260°
2026-05-05 12:39 -31.57973 26.42177 35851 ft 423 kts 260°
2026-05-05 12:40 -31.60290 26.35838 35841 ft 423 kts 260°
2026-05-05 12:40 -31.62612 26.29475 35863 ft 426 kts 260°
2026-05-05 12:41 -31.64935 26.23092 35858 ft 425 kts 260°
2026-05-05 12:41 -31.67266 26.16680 35848 ft 428 kts 260°
2026-05-05 12:42 -31.69599 26.10251 35839 ft 428 kts 260°
2026-05-05 12:42 -31.71926 26.03822 35857 ft 428 kts 260°
2026-05-05 12:43 -31.74253 25.97384 35853 ft 428 kts 260°
2026-05-05 12:43 -31.76579 25.90937 35870 ft 430 kts 261°
2026-05-05 12:44 -31.78913 25.84455 35863 ft 431 kts 261°
2026-05-05 12:44 -31.81246 25.77961 35859 ft 431 kts 261°
2026-05-05 12:45 -31.83575 25.71470 35864 ft 431 kts 261°
2026-05-05 12:45 -31.85902 25.64968 35862 ft 431 kts 261°
2026-05-05 12:46 -31.88218 25.58484 35870 ft 436 kts 261°
2026-05-05 12:46 -31.90566 25.51901 35871 ft 436 kts 261°
2026-05-05 12:47 -31.92911 25.45315 35874 ft 436 kts 261°
2026-05-05 12:47 -31.95249 25.38731 35883 ft 436 kts 261°
2026-05-05 12:48 -31.97205 25.33214 35886 ft 436 kts 261°
2026-05-05 12:48 -31.99550 25.26589 35888 ft 439 kts 260°
2026-05-05 12:49 -32.01884 25.19981 35887 ft 440 kts 260°
2026-05-05 12:49 -32.04228 25.13331 35896 ft 440 kts 261°
2026-05-05 12:50 -32.06572 25.06671 35894 ft 440 kts 261°
2026-05-05 12:50 -32.08913 25.00004 35941 ft 440 kts 260°
2026-05-05 12:51 -32.11262 24.93297 35906 ft 444 kts 260°
2026-05-05 12:51 -32.13619 24.86559 35884 ft 444 kts 260°
2026-05-05 12:52 -32.15970 24.79821 35898 ft 444 kts 260°
2026-05-05 12:52 -32.18317 24.73084 35919 ft 444 kts 260°
2026-05-05 12:53 -32.20660 24.66344 35921 ft 443 kts 260°
2026-05-05 12:53 -32.22999 24.59601 35949 ft 444 kts 260°
2026-05-05 12:54 -32.26499 24.49484 35933 ft 443 kts 260°
2026-05-05 12:55 -32.28824 24.42744 35951 ft 443 kts 260°
2026-05-05 12:55 -32.31155 24.35978 35973 ft 445 kts 259°
2026-05-05 12:56 -32.33469 24.29244 35942 ft 445 kts 259°
2026-05-05 12:56 -32.35795 24.22465 35948 ft 445 kts 259°
2026-05-05 12:57 -32.38121 24.15672 35944 ft 446 kts 259°
2026-05-05 12:57 -32.40445 24.08873 35943 ft 446 kts 259°
2026-05-05 12:58 -32.42770 24.02059 35953 ft 448 kts 259°
2026-05-05 12:58 -32.45087 23.95215 35941 ft 448 kts 259°
2026-05-05 12:59 -32.47405 23.88370 35945 ft 448 kts 259°
2026-05-05 12:59 -32.49721 23.81516 35948 ft 448 kts 259°
2026-05-05 13:00 -32.53190 23.71225 35971 ft 450 kts 258°
2026-05-05 13:01 -32.57820 23.57440 35933 ft 450 kts 258°
2026-05-05 13:01 -32.60129 23.50542 35944 ft 450 kts 258°
2026-05-05 13:02 -32.62436 23.43633 35976 ft 451 kts 258°
2026-05-05 13:02 -32.64744 23.36717 35919 ft 452 kts 257°
2026-05-05 13:03 -32.67063 23.29762 35952 ft 454 kts 257°
2026-05-05 13:03 -32.69380 23.22796 35946 ft 454 kts 257°
2026-05-05 13:04 -32.71694 23.15827 35953 ft 454 kts 257°
2026-05-05 13:04 -32.74003 23.08855 35976 ft 454 kts 257°
2026-05-05 13:05 -32.76309 23.01877 35960 ft 454 kts 257°
2026-05-05 13:05 -32.78615 22.94883 35943 ft 454 kts 257°
2026-05-05 13:06 -32.80915 22.87891 35960 ft 455 kts 257°
2026-05-05 13:06 -32.83212 22.80896 35965 ft 454 kts 257°
2026-05-05 13:07 -32.85508 22.73889 35945 ft 456 kts 255°
2026-05-05 13:07 -32.87805 22.66859 35952 ft 456 kts 255°
2026-05-05 13:08 -32.90083 22.59878 35957 ft 456 kts 255°
2026-05-05 13:08 -32.92651 22.52946 35969 ft 460 kts 251°
2026-05-05 13:09 -32.95424 22.46076 35964 ft 460 kts 251°
2026-05-05 13:09 -32.98162 22.39187 35972 ft 461 kts 250°
2026-05-05 13:10 -33.00899 22.32278 35970 ft 461 kts 250°
2026-05-05 13:10 -33.03629 22.25372 35968 ft 461 kts 250°
2026-05-05 13:11 -33.06358 22.18454 35978 ft 461 kts 250°
2026-05-05 13:11 -33.09083 22.11532 35984 ft 461 kts 249°
2026-05-05 13:12 -33.11808 22.04600 35970 ft 462 kts 249°
2026-05-05 13:12 -33.14528 21.97663 35981 ft 462 kts 249°
2026-05-05 13:13 -33.17246 21.90716 35987 ft 462 kts 249°
2026-05-05 13:13 -33.19959 21.83769 35986 ft 462 kts 249°
2026-05-05 13:14 -33.22664 21.76831 36002 ft 462 kts 248°
2026-05-05 13:14 -33.25370 21.69873 35992 ft 462 kts 248°
2026-05-05 13:15 -33.28072 21.62912 35983 ft 462 kts 248°
2026-05-05 13:15 -33.30769 21.55948 35988 ft 462 kts 249°
2026-05-05 13:16 -33.33466 21.48972 35990 ft 462 kts 248°
2026-05-05 13:16 -33.36159 21.41990 36001 ft 462 kts 248°
2026-05-05 13:17 -33.38849 21.35002 36006 ft 462 kts 249°
2026-05-05 13:17 -33.41534 21.28014 36006 ft 462 kts 249°
2026-05-05 13:18 -33.44215 21.21022 36005 ft 462 kts 249°
2026-05-05 13:18 -33.46893 21.14027 36009 ft 462 kts 249°
2026-05-05 13:19 -33.49568 21.07030 36004 ft 461 kts 248°
2026-05-05 13:19 -33.52202 21.00136 35713 ft 447 kts 248°
2026-05-05 13:20 -33.53473 20.96802 35232 ft 444 kts 248°
2026-05-05 13:20 -33.54755 20.93438 34689 ft 444 kts 248°
2026-05-05 13:20 -33.56035 20.90076 34159 ft 443 kts 248°
2026-05-05 13:20 -33.57314 20.86714 33567 ft 443 kts 248°
2026-05-05 13:21 -33.58589 20.83359 32997 ft 441 kts 248°
2026-05-05 13:21 -33.59854 20.80028 32520 ft 437 kts 247°
2026-05-05 13:21 -33.61108 20.76719 32044 ft 434 kts 246°
2026-05-05 13:21 -33.62354 20.73429 31539 ft 432 kts 246°
2026-05-05 13:22 -33.63593 20.70155 31045 ft 430 kts 246°
2026-05-05 13:22 -33.64826 20.66894 30568 ft 428 kts 246°
2026-05-05 13:22 -33.66053 20.63645 30079 ft 427 kts 245°
2026-05-05 13:22 -33.67275 20.60406 29516 ft 425 kts 245°
2026-05-05 13:23 -33.68489 20.57187 29029 ft 421 kts 245°
2026-05-05 13:23 -33.69690 20.53998 28578 ft 415 kts 245°
2026-05-05 13:23 -33.70867 20.50869 28147 ft 407 kts 245°
2026-05-05 13:23 -33.72019 20.47804 27717 ft 400 kts 245°
2026-05-05 13:24 -33.73159 20.44767 27294 ft 397 kts 244°
2026-05-05 13:24 -33.74291 20.41750 26862 ft 395 kts 244°
2026-05-05 13:24 -33.75414 20.38754 26448 ft 392 kts 244°
2026-05-05 13:24 -33.76530 20.35774 26038 ft 390 kts 244°
2026-05-05 13:25 -33.77637 20.32815 25635 ft 387 kts 244°
2026-05-05 13:25 -33.78737 20.29872 25223 ft 385 kts 244°
2026-05-05 13:25 -33.79833 20.26938 24840 ft 383 kts 244°
2026-05-05 13:25 -33.80920 20.24027 24456 ft 381 kts 244°
2026-05-05 13:26 -33.82000 20.21129 24065 ft 379 kts 244°
2026-05-05 13:26 -33.83077 20.18238 23687 ft 378 kts 244°
2026-05-05 13:26 -33.84135 20.15395 23251 ft 377 kts 244°
2026-05-05 13:26 -33.85201 20.12529 22835 ft 374 kts 243°
2026-05-05 13:27 -33.86257 20.09685 22449 ft 371 kts 243°
2026-05-05 13:27 -33.87304 20.06865 22084 ft 367 kts 243°
2026-05-05 13:27 -33.88341 20.04069 21716 ft 364 kts 243°
2026-05-05 13:27 -33.89368 20.01297 21342 ft 361 kts 244°
2026-05-05 13:28 -33.90387 19.98548 20987 ft 359 kts 244°
2026-05-05 13:28 -33.91398 19.95814 20623 ft 356 kts 244°
2026-05-05 13:28 -33.92401 19.93099 20255 ft 354 kts 244°
2026-05-05 13:28 -33.93399 19.90401 19898 ft 352 kts 244°
2026-05-05 13:29 -33.94389 19.87719 19559 ft 349 kts 244°
2026-05-05 13:29 -33.95373 19.85052 19203 ft 347 kts 244°
2026-05-05 13:29 -33.96351 19.82401 18854 ft 345 kts 244°
2026-05-05 13:29 -33.97389 19.79803 18468 ft 344 kts 240°
2026-05-05 13:30 -33.98497 19.77258 18109 ft 342 kts 239°
2026-05-05 13:30 -33.99588 19.74726 17746 ft 339 kts 240°
2026-05-05 13:30 -34.00665 19.72210 17398 ft 336 kts 240°
2026-05-05 13:30 -34.01730 19.69713 17061 ft 334 kts 240°
2026-05-05 13:31 -34.02786 19.67238 16728 ft 330 kts 240°
2026-05-05 13:31 -34.03831 19.64782 16383 ft 327 kts 240°
2026-05-05 13:31 -34.04864 19.62356 16061 ft 324 kts 240°
2026-05-05 13:31 -34.05717 19.59841 15648 ft 327 kts 256°
2026-05-05 13:32 -34.06033 19.57140 15353 ft 324 kts 260°
2026-05-05 13:32 -34.06341 19.54464 15054 ft 321 kts 260°
2026-05-05 13:32 -34.06637 19.51805 14725 ft 319 kts 261°
2026-05-05 13:32 -34.06924 19.49162 14410 ft 317 kts 261°
2026-05-05 13:33 -34.07206 19.46535 14087 ft 315 kts 261°
2026-05-05 13:33 -34.07485 19.43921 13755 ft 313 kts 261°
2026-05-05 13:33 -34.07757 19.41358 13400 ft 311 kts 261°
2026-05-05 13:33 -34.08030 19.38780 13065 ft 308 kts 261°
2026-05-05 13:34 -34.08300 19.36227 12755 ft 305 kts 261°
2026-05-05 13:34 -34.08570 19.33665 12440 ft 303 kts 261°
2026-05-05 13:34 -34.08834 19.31157 12131 ft 300 kts 261°
2026-05-05 13:34 -34.09092 19.28699 11821 ft 298 kts 261°
2026-05-05 13:35 -34.09350 19.26226 11518 ft 296 kts 261°
2026-05-05 13:35 -34.09608 19.23764 11210 ft 295 kts 261°
2026-05-05 13:35 -34.09863 19.21320 10903 ft 293 kts 261°
2026-05-05 13:35 -34.10117 19.18889 10604 ft 291 kts 262°
2026-05-05 13:36 -34.10368 19.16477 10325 ft 289 kts 261°
2026-05-05 13:36 -34.10615 19.14104 10160 ft 281 kts 262°
2026-05-05 13:36 -34.10853 19.11797 9990 ft 274 kts 261°
2026-05-05 13:36 -34.11088 19.09525 9699 ft 272 kts 261°
2026-05-05 13:37 -34.11243 19.08029 9483 ft 271 kts 261°
2026-05-05 13:37 -34.11472 19.05784 9183 ft 269 kts 261°
2026-05-05 13:37 -34.11779 19.02807 8787 ft 266 kts 261°
2026-05-05 13:37 -34.11930 19.01346 8600 ft 264 kts 261°
2026-05-05 13:38 -34.12154 18.99155 8326 ft 262 kts 261°
2026-05-05 13:38 -34.12377 18.96982 8049 ft 260 kts 262°
2026-05-05 13:38 -34.12597 18.94825 7762 ft 260 kts 262°
2026-05-05 13:38 -34.12817 18.92665 7462 ft 259 kts 262°
2026-05-05 13:39 -34.13036 18.90517 7193 ft 257 kts 262°
2026-05-05 13:39 -34.13250 18.88402 7043 ft 250 kts 262°
2026-05-05 13:39 -34.13459 18.86347 6927 ft 245 kts 262°
2026-05-05 13:39 -34.13665 18.84319 6810 ft 243 kts 262°
2026-05-05 13:40 -34.13870 18.82297 6698 ft 243 kts 262°
2026-05-05 13:40 -34.14080 18.80279 6560 ft 241 kts 260°
2026-05-05 13:40 -34.14408 18.78280 6084 ft 247 kts 258°
2026-05-05 13:40 -34.14756 18.76235 5396 ft 250 kts 258°
2026-05-05 13:41 -34.15102 18.74170 4701 ft 251 kts 258°
2026-05-05 13:41 -34.15440 18.72122 4074 ft 247 kts 259°
2026-05-05 13:41 -34.15752 18.70113 3624 ft 237 kts 264°
2026-05-05 13:41 -34.15530 18.68235 3420 ft 221 kts 293°
2026-05-05 13:42 -34.14628 18.66842 3217 ft 204 kts 319°
2026-05-05 13:42 -34.13510 18.65921 3033 ft 186 kts 328°
2026-05-05 13:42 -34.12337 18.65294 2855 ft 181 kts 338°
2026-05-05 13:42 -34.11192 18.64853 2645 ft 163 kts 341°
2026-05-05 13:43 -34.10161 18.64513 2441 ft 147 kts 341°
2026-05-05 13:43 -34.09177 18.64197 2258 ft 146 kts 343°
2026-05-05 13:43 -34.08201 18.63887 2079 ft 145 kts 341°
2026-05-05 13:43 -34.07235 18.63578 1872 ft 143 kts 341°
2026-05-05 13:44 -34.06267 18.63271 1697 ft 144 kts 341°
2026-05-05 13:44 -34.05317 18.62969 1462 ft 143 kts 342°
2026-05-05 13:44 -34.04332 18.62656 1278 ft 146 kts 342°
2026-05-05 13:44 -34.03369 18.62348 1122 ft 145 kts 342°
2026-05-05 13:45 -34.02395 18.62050 915 ft 145 kts 344°
2026-05-05 13:45 -34.01393 18.61737 795 ft 149 kts 343°
2026-05-05 13:45 -34.00388 18.61405 587 ft 152 kts 343°
2026-05-05 13:45 -33.99360 18.61082 379 ft 151 kts 343°
2026-05-05 13:46 -33.98359 18.60762 165 ft 144 kts 342°
2026-05-05 13:46 -33.97513 18.60489 154 ft 97 kts 345°
2026-05-05 13:46 -33.97151 18.60341 157 ft 28 kts 316°
2026-05-05 13:46 -33.97093 18.60176 157 ft 14 kts 286°
2026-05-05 13:47 -33.97070 18.60078 157 ft 10 kts 285°
2026-05-05 13:47 -33.97052 18.59998 157 ft 12 kts 286°
2026-05-05 13:47 -33.97020 18.59928 157 ft 9 kts 278°
2026-05-05 13:47 -33.97032 18.59866 157 ft 2 kts 253°
2026-05-05 13:48 -33.97034 18.59854 157 ft 0 kts 255°